Date Time,Air Temp,Sky Temp,Clarity,Light Level,Rain Sensor,Readings
2011-07-14 00:00:05,19.4,4.8,14.7,0.2,2.3,111
2011-07-14 00:05:05,19.7,1.7,18.0,0.2,2.3,111
2011-07-14 00:10:05,19.6,1.3,18.3,0.2,2.3,112
2011-07-14 00:15:05,19.5,0.9,18.6,0.2,2.3,110
2011-07-14 00:20:05,19.4,2.8,16.6,0.2,2.3,111
2011-07-14 00:25:05,19.5,3.4,16.1,0.2,2.3,112
2011-07-14 00:30:05,19.5,0.8,18.8,0.2,2.3,111
2011-07-14 00:35:05,19.6,0.9,18.7,0.2,2.3,111
2011-07-14 00:40:05,19.4,1.8,17.5,0.2,2.3,111
2011-07-14 00:45:05,19.3,3.0,16.3,0.2,2.4,111
2011-07-14 00:50:05,19.2,2.7,16.5,0.2,2.6,112
2011-07-14 00:55:05,19.1,1.3,17.8,0.2,2.7,111
2011-07-14 01:00:05,19.0,0.3,18.7,0.2,2.6,111
2011-07-14 01:05:05,19.6,-1.4,21.0,0.2,2.5,112
2011-07-14 01:10:05,22.4,-3.2,25.6,0.2,2.3,112
2011-07-14 01:15:05,23.3,-4.0,27.3,0.2,2.3,112
2011-07-14 01:20:05,23.6,-4.9,28.4,0.2,2.4,111
2011-07-14 01:25:05,23.7,-3.3,27.0,0.2,2.3,112
2011-07-14 01:30:05,23.8,-4.4,28.2,0.1,2.3,112
2011-07-14 01:35:05,23.9,-4.2,28.1,0.1,2.3,112
2011-07-14 01:40:05,23.8,-4.4,28.2,0.1,2.3,112
2011-07-14 01:45:05,23.7,-5.3,29.0,0.1,2.3,111
2011-07-14 01:50:05,23.7,-6.7,30.4,0.1,2.3,111
2011-07-14 01:55:05,23.7,-8.1,31.8,0.1,2.4,112
2011-07-14 02:00:05,23.6,-8.6,32.2,0.1,2.5,112
2011-07-14 02:05:05,23.5,-9.1,32.6,0.1,2.4,111
2011-07-14 02:10:05,23.4,-9.5,32.9,0.3,2.3,112
2011-07-14 02:15:05,23.3,-8.8,32.0,0.4,2.3,111
2011-07-14 02:20:05,23.2,-8.9,32.1,0.4,2.3,112
2011-07-14 02:25:05,23.2,-9.0,32.2,0.4,2.3,111
2011-07-14 02:30:05,23.2,-4.0,27.2,0.4,2.4,112
2011-07-14 02:35:05,23.3,2.0,21.3,0.4,2.4,111
2011-07-14 02:40:05,23.4,2.8,20.6,0.4,2.3,111
2011-07-14 02:45:05,21.2,4.0,17.2,0.4,2.3,112
2011-07-14 02:50:05,19.4,4.7,14.7,0.3,2.3,111
2011-07-14 02:55:05,18.9,5.1,13.8,0.3,2.6,112
2011-07-14 03:00:05,18.7,4.5,14.2,0.3,2.5,112
2011-07-14 03:05:05,18.6,4.7,13.9,0.3,2.4,112
2011-07-14 03:10:05,18.5,4.5,14.0,0.2,2.3,111
2011-07-14 03:15:05,18.4,4.3,14.2,0.2,2.3,112
2011-07-14 03:20:05,18.4,3.7,14.6,0.2,2.3,112
2011-07-14 03:25:05,18.3,3.3,15.1,0.2,2.2,111
2011-07-14 03:30:05,18.3,3.1,15.2,0.2,2.2,111
2011-07-14 03:35:05,18.2,3.1,15.1,0.2,2.1,112
2011-07-14 03:40:05,18.3,3.9,14.4,0.2,2.1,111
2011-07-14 03:45:05,18.4,5.2,13.2,0.2,2.2,112
2011-07-14 03:50:05,18.6,5.0,13.6,0.3,2.3,111
2011-07-14 03:55:05,18.6,3.6,15.0,0.5,2.3,112
2011-07-14 04:00:05,18.6,3.6,14.9,0.7,2.3,111
2011-07-14 04:05:05,18.6,4.0,14.6,1.0,2.3,112
2011-07-14 04:10:05,18.7,4.7,13.9,1.5,2.3,112
2011-07-14 04:15:05,18.7,5.2,13.4,2.3,2.3,112
2011-07-14 04:20:05,18.7,5.3,13.5,3.6,2.3,112
2011-07-14 04:25:05,18.8,5.9,12.9,4.9,2.3,111
2011-07-14 04:30:05,18.8,5.4,13.4,7.4,2.3,112
2011-07-14 04:35:05,18.9,5.3,13.6,10.8,2.3,112
2011-07-14 04:40:05,18.8,3.6,15.2,15.4,2.3,111
2011-07-14 04:45:05,18.8,2.6,16.1,19.9,2.3,112
2011-07-14 04:50:05,18.8,1.4,17.3,23.7,2.3,111
2011-07-14 04:55:05,18.8,-0.2,19.0,26.4,2.3,111
2011-07-14 05:00:05,21.1,-1.1,22.1,28.1,2.4,112
2011-07-14 05:05:05,22.9,0.2,22.8,29.2,2.3,112
2011-07-14 05:10:05,23.4,-1.2,24.6,30.0,2.3,112
2011-07-14 05:15:05,23.5,-1.6,25.1,30.5,2.3,111
2011-07-14 05:20:05,23.7,-2.5,26.2,31.0,2.3,112
2011-07-14 05:25:05,23.8,-1.4,25.2,31.3,2.4,112
2011-07-14 05:30:05,23.8,0.6,23.2,31.5,2.5,111
2011-07-14 05:35:05,23.8,0.5,23.3,31.6,2.5,111
2011-07-14 05:40:05,24.0,-1.6,25.6,31.8,2.3,112
2011-07-14 05:45:05,24.0,-1.0,25.0,31.9,2.3,111
2011-07-14 05:50:05,24.0,1.1,22.9,32.0,2.3,111
2011-07-14 05:55:05,24.1,-2.7,26.8,32.1,2.3,111
2011-07-14 06:00:05,24.3,-4.3,28.6,32.1,2.3,112
2011-07-14 06:05:05,23.9,-6.6,30.5,32.2,2.3,112
2011-07-14 06:10:05,23.7,-8.7,32.3,32.1,2.3,112
2011-07-14 06:15:05,23.6,-8.6,32.1,32.2,2.3,112
2011-07-14 06:20:05,23.6,-9.3,32.9,32.2,2.3,111
2011-07-14 06:25:05,23.6,-9.1,32.7,32.2,2.4,112
2011-07-14 06:30:05,23.6,-9.0,32.6,32.2,2.5,112
2011-07-14 06:35:05,23.6,-9.3,32.9,32.2,2.4,111
2011-07-14 06:40:05,23.6,-9.4,33.0,32.2,2.4,112
2011-07-14 06:45:05,23.7,-9.3,32.9,32.3,2.4,112
2011-07-14 06:50:05,23.9,-9.3,33.2,32.3,2.3,111
2011-07-14 06:55:05,24.2,-9.2,33.4,32.3,2.2,112
2011-07-14 07:00:05,24.8,-9.2,34.0,32.3,2.3,112
2011-07-14 07:05:05,25.3,-9.2,34.4,32.3,2.3,112
2011-07-14 07:10:05,25.6,-9.2,34.7,32.3,2.3,111
2011-07-14 07:15:05,25.9,-9.1,35.0,32.3,2.3,112
2011-07-14 07:20:05,26.2,-9.3,35.5,32.3,2.3,112
2011-07-14 07:25:05,26.3,-9.2,35.5,32.3,2.2,112
2011-07-14 07:30:05,26.4,-9.2,35.6,32.3,2.1,111
2011-07-14 07:35:05,26.4,-9.2,35.6,32.3,2.2,112
2011-07-14 07:40:05,26.6,-8.4,35.0,32.3,2.3,112
2011-07-14 07:45:05,26.9,-8.4,35.4,32.4,2.3,112
2011-07-14 07:50:05,27.2,-8.7,35.9,32.4,2.4,111
2011-07-14 07:55:05,27.1,-8.6,35.7,32.4,2.3,112
2011-07-14 08:00:05,27.1,-9.3,36.4,32.4,2.4,111
2011-07-14 08:05:05,27.0,-8.6,35.6,32.4,2.4,112
2011-07-14 08:10:05,27.3,-8.2,35.5,32.4,2.4,112
2011-07-14 08:15:06,27.0,-8.0,35.0,32.4,2.3,112
2011-07-14 08:20:06,26.8,-8.8,35.6,32.4,2.4,111
2011-07-14 08:25:06,26.9,-8.5,35.4,32.4,2.4,112
2011-07-14 08:30:06,27.0,-8.2,35.3,32.4,2.3,111
2011-07-14 08:35:06,27.1,-8.1,35.2,32.4,2.3,112
2011-07-14 08:40:06,27.0,-8.9,35.9,32.4,2.3,112
2011-07-14 08:45:06,26.5,-8.7,35.2,32.4,2.3,112
2011-07-14 08:50:06,26.4,-8.8,35.2,32.4,2.2,111
2011-07-14 08:55:06,25.9,-8.6,34.6,32.4,2.2,112
2011-07-14 09:00:06,25.9,-8.5,34.4,32.4,2.3,112
2011-07-14 09:05:06,25.9,-8.6,34.5,32.4,2.3,111
2011-07-14 09:10:06,26.0,-8.2,34.2,32.4,2.2,112
2011-07-14 09:15:06,26.1,-8.2,34.4,32.4,2.2,112
2011-07-14 09:20:06,26.4,-8.3,34.7,32.4,2.3,111
2011-07-14 09:25:06,26.9,-7.0,33.9,32.5,2.3,112
2011-07-14 09:30:06,27.6,-7.5,35.2,32.5,2.3,112
2011-07-14 09:35:06,28.0,-8.6,36.5,32.5,2.3,111
2011-07-14 09:40:06,28.2,-7.9,36.1,32.5,2.3,112
2011-07-14 09:45:06,28.3,-9.0,37.2,32.5,2.3,112
2011-07-14 09:50:06,28.4,-8.4,36.8,32.5,2.3,111
2011-07-14 09:55:06,28.6,-7.6,36.2,32.5,2.3,112
2011-07-14 10:00:06,28.9,-6.8,35.7,32.5,2.3,111
2011-07-14 10:05:06,29.0,-4.5,33.5,32.5,2.3,112
2011-07-14 10:10:06,29.2,-2.8,32.0,32.6,2.3,112
2011-07-14 10:15:06,29.6,-2.6,32.2,32.6,2.3,111
2011-07-14 10:20:06,30.0,-2.0,32.0,32.6,2.3,112
2011-07-14 10:25:06,30.6,-1.9,32.5,32.6,2.3,111
2011-07-14 10:30:06,30.6,-4.7,35.3,32.5,2.3,112
2011-07-14 10:35:06,30.4,-2.0,32.4,32.6,2.3,112
2011-07-14 10:40:06,30.4,3.7,26.7,32.6,2.3,111
2011-07-14 10:45:06,30.5,-0.9,31.4,32.5,2.3,112
2011-07-14 10:50:06,29.9,-6.0,35.8,32.6,2.3,111
2011-07-14 10:55:06,29.8,-4.8,34.6,32.6,2.3,112
2011-07-14 11:00:06,30.3,-5.2,35.5,32.6,2.3,112
2011-07-14 11:05:06,30.6,-4.4,35.0,32.6,2.3,111
2011-07-14 11:10:06,30.9,-2.2,33.1,32.6,2.3,112
2011-07-14 11:15:06,31.4,-4.4,35.8,32.6,2.3,112
2011-07-14 11:20:06,31.5,-5.0,36.5,32.6,2.3,112
2011-07-14 11:25:06,31.6,-3.1,34.8,32.6,2.3,112
2011-07-14 11:30:06,31.8,-3.9,35.7,32.6,2.3,111
2011-07-14 11:35:06,32.0,-2.1,34.1,32.6,2.3,112
2011-07-14 11:40:06,32.3,-1.8,34.1,32.6,2.3,111
2011-07-14 11:45:06,32.5,-0.1,32.6,32.6,2.1,111
2011-07-14 11:50:06,32.8,0.4,32.4,32.6,1.7,112
2011-07-14 11:55:06,32.5,-3.0,35.5,32.6,1.6,111
2011-07-14 12:00:06,32.2,1.9,30.3,32.6,2.2,111
2011-07-14 12:05:06,33.0,-0.8,33.8,32.6,1.4,112
2011-07-14 12:10:06,32.9,-2.6,35.4,32.6,1.6,112
2011-07-14 12:15:06,32.8,-1.4,34.2,32.6,1.5,111
2011-07-14 12:20:06,33.1,-1.6,34.7,32.6,1.6,112
2011-07-14 12:25:06,33.3,-1.1,34.5,32.6,1.3,111
2011-07-14 12:30:06,33.6,-0.8,34.4,32.6,1.2,112
2011-07-14 12:35:06,34.0,0.9,33.1,32.6,1.3,111
2011-07-14 12:40:06,34.6,-0.3,34.9,32.6,1.6,112
2011-07-14 12:45:06,34.3,-0.5,34.9,32.6,1.5,111
2011-07-14 12:50:06,34.4,0.4,34.1,32.6,1.6,111
2011-07-14 12:55:06,33.8,1.3,32.5,32.6,1.4,111
2011-07-14 13:00:06,34.5,2.4,32.1,32.6,1.7,111
2011-07-14 13:05:06,34.9,4.0,30.9,32.6,1.8,112
2011-07-14 13:10:06,35.4,1.8,33.6,32.6,2.0,111
2011-07-14 13:15:06,34.4,0.1,34.3,32.6,1.8,111
2011-07-14 13:20:06,34.2,1.0,33.2,32.6,1.6,112
2011-07-14 13:25:06,34.6,3.2,31.4,32.6,1.8,111
2011-07-14 13:30:06,35.0,0.7,34.3,32.6,1.9,112
2011-07-14 13:35:06,35.1,2.4,32.7,32.6,1.9,111
2011-07-14 13:40:06,35.4,2.8,32.7,32.6,2.1,112
2011-07-14 13:45:06,35.7,2.4,33.4,32.6,2.1,111
2011-07-14 13:50:06,35.7,1.7,34.0,32.6,2.2,111
2011-07-14 13:55:06,34.0,1.9,32.2,32.6,1.8,111
2011-07-14 14:00:06,33.9,1.5,32.4,32.6,1.7,111
2011-07-14 14:05:06,34.2,2.5,31.7,32.6,1.7,111
2011-07-14 14:10:06,34.6,4.3,30.3,32.6,1.8,111
2011-07-14 14:15:06,35.1,2.6,32.4,32.6,2.0,112
2011-07-14 14:20:06,34.7,2.6,32.1,32.6,1.8,112
2011-07-14 14:25:06,35.0,6.0,28.9,32.6,2.0,111
2011-07-14 14:30:06,35.6,4.5,31.1,32.6,2.3,111
2011-07-14 14:35:06,35.8,4.7,31.1,32.6,2.4,112
2011-07-14 14:40:06,35.5,5.2,30.3,32.6,2.4,111
2011-07-14 14:45:06,34.8,3.8,31.0,32.6,2.1,111
2011-07-14 14:50:06,35.4,3.7,31.7,32.6,2.3,112
2011-07-14 14:55:06,35.8,4.7,31.1,32.6,2.4,111
2011-07-14 15:00:06,35.4,4.6,30.7,32.6,2.4,112
2011-07-14 15:05:06,36.2,2.9,33.3,32.6,2.4,111
2011-07-14 15:10:06,35.5,5.6,29.9,32.6,2.4,111
2011-07-14 15:15:06,36.1,7.4,28.7,32.6,2.4,111
2011-07-14 15:20:06,37.3,7.7,29.7,32.6,2.7,112
2011-07-14 15:25:06,37.5,9.3,28.2,32.6,2.7,111
2011-07-14 15:30:06,37.2,3.8,33.3,32.6,2.5,112
2011-07-14 15:35:06,35.2,7.5,27.6,32.6,2.4,111
2011-07-14 15:40:06,34.1,6.3,27.8,32.6,2.1,112
2011-07-14 15:45:06,33.0,6.8,26.1,32.6,1.7,111
2011-07-14 15:50:06,32.2,7.3,24.9,32.5,1.4,111
2011-07-14 15:55:06,31.6,9.7,21.9,32.6,1.1,112
2011-07-14 16:00:06,32.6,10.3,22.4,32.6,1.6,111
2011-07-14 16:05:06,34.5,8.1,26.4,32.6,1.9,112
2011-07-14 16:10:06,32.9,12.0,20.9,32.6,1.7,111
2011-07-14 16:15:06,33.1,11.9,21.2,32.6,2.0,111
2011-07-14 16:20:06,35.7,7.7,28.0,32.6,2.4,111
2011-07-14 16:25:06,34.4,10.1,24.3,32.6,2.1,112
2011-07-14 16:30:06,34.2,6.9,27.3,32.6,2.0,111
2011-07-14 16:35:06,35.3,6.1,29.2,32.6,2.3,112
2011-07-14 16:40:06,35.4,4.8,30.6,32.6,2.3,111
2011-07-14 16:45:06,34.1,9.7,24.3,32.6,1.9,112
2011-07-14 16:50:06,33.4,7.9,25.4,32.6,1.7,111
2011-07-14 16:55:06,32.9,5.9,27.0,32.6,1.6,111
2011-07-14 17:00:06,34.1,5.6,28.5,32.6,1.9,112
2011-07-14 17:05:06,35.2,2.4,32.8,32.6,2.2,111
2011-07-14 17:10:06,34.2,0.5,33.6,32.6,1.9,112
2011-07-14 17:15:06,32.2,2.8,29.4,32.6,1.6,111
2011-07-14 17:20:06,32.4,1.4,31.0,32.5,1.3,111
2011-07-14 17:25:06,32.0,5.0,27.0,32.5,1.2,112
2011-07-14 17:30:06,31.6,10.2,21.4,32.5,1.2,111
2011-07-14 17:35:06,31.9,10.4,21.5,32.5,1.2,112
2011-07-14 17:40:06,31.3,11.7,19.6,32.5,1.0,111
2011-07-14 17:45:06,28.9,11.3,17.6,32.6,1.2,112
2011-07-14 17:50:06,29.1,8.6,20.5,32.6,1.9,111
2011-07-14 17:55:06,32.5,3.3,29.2,32.6,1.3,112
2011-07-14 18:00:06,33.0,6.7,26.2,32.6,1.4,111
2011-07-14 18:05:06,33.6,7.3,26.3,32.6,1.6,111
2011-07-14 18:10:06,34.1,6.2,27.9,32.6,1.8,112
2011-07-14 18:15:06,34.1,0.6,33.5,32.6,1.8,111
2011-07-14 18:20:06,33.8,5.4,28.4,32.6,1.8,112
2011-07-14 18:25:06,34.0,2.7,31.2,32.6,1.8,111
2011-07-14 18:30:06,33.9,1.9,32.0,32.6,1.8,111
2011-07-14 18:35:06,33.9,1.4,32.5,32.6,1.8,111
2011-07-14 18:40:06,33.9,2.0,31.9,32.6,1.8,111
2011-07-14 18:45:06,33.7,3.2,30.5,32.6,1.8,112
2011-07-14 18:50:06,33.6,6.1,27.5,32.6,1.8,111
2011-07-14 18:55:06,33.5,4.3,29.2,32.6,1.8,111
2011-07-14 19:00:06,33.0,0.4,32.6,32.5,1.6,111
2011-07-14 19:05:06,32.3,-0.7,33.0,32.5,1.3,112
2011-07-14 19:10:06,31.8,-0.0,31.8,32.5,1.2,112
2011-07-14 19:15:06,31.5,-1.2,32.6,32.5,1.2,112
2011-07-14 19:20:06,30.9,-1.3,32.2,32.5,1.5,111
2011-07-14 19:25:06,30.6,-0.8,31.4,32.5,1.6,112
2011-07-14 19:30:06,30.4,-0.9,31.3,32.5,1.9,112
2011-07-14 19:35:06,30.2,-1.4,31.6,32.5,2.2,111
2011-07-14 19:40:06,29.9,-1.3,31.2,32.5,2.3,112
2011-07-14 19:45:06,29.7,-1.5,31.2,32.5,2.3,111
2011-07-14 19:50:06,29.6,-1.4,31.0,32.5,2.3,112
2011-07-14 19:55:06,29.6,-1.3,30.9,32.5,2.3,111
2011-07-14 20:00:06,29.7,-1.2,30.8,32.5,2.3,112
2011-07-14 20:05:06,29.8,-1.4,31.2,32.5,2.3,111
2011-07-14 20:10:06,29.7,-1.7,31.4,32.5,2.3,112
2011-07-14 20:15:06,29.5,-2.0,31.5,32.4,2.3,112
2011-07-14 20:20:06,29.3,-2.1,31.4,32.4,2.3,111
2011-07-14 20:25:06,29.2,-2.4,31.6,32.4,2.3,112
2011-07-14 20:30:06,29.0,-2.7,31.6,32.3,2.3,112
2011-07-14 20:35:06,28.7,-3.0,31.7,32.3,2.3,111
2011-07-14 20:40:06,28.5,-3.1,31.6,32.2,2.3,112
2011-07-14 20:45:06,28.2,-3.4,31.6,32.2,2.3,112
2011-07-14 20:50:06,27.9,-3.3,31.2,32.1,2.3,112
2011-07-14 20:55:06,27.6,-3.4,31.0,32.0,2.3,112
2011-07-14 21:00:06,27.3,-3.5,30.7,31.8,2.3,112
2011-07-14 21:05:06,27.0,-3.5,30.4,31.6,2.3,111
2011-07-14 21:10:06,26.7,-3.5,30.2,31.3,2.3,112
2011-07-14 21:15:06,26.4,-3.4,29.9,30.9,2.3,112
2011-07-14 21:20:06,26.2,-3.6,29.8,30.3,2.3,112
2011-07-14 21:25:06,26.1,-3.7,29.7,29.3,2.3,112
2011-07-14 21:30:06,25.9,-3.9,29.8,27.6,2.3,112
2011-07-14 21:35:06,25.8,-4.0,29.8,25.1,2.3,112
2011-07-14 21:40:06,25.8,-3.9,29.7,21.8,2.3,112
2011-07-14 21:45:06,25.7,-4.0,29.7,17.9,2.5,111
2011-07-14 21:50:06,25.6,-4.1,29.7,13.7,2.5,112
2011-07-14 21:55:06,25.5,-4.4,29.9,9.8,2.3,112
2011-07-14 22:00:06,25.4,-4.5,29.9,6.6,2.3,112
2011-07-14 22:05:06,25.4,-4.7,30.1,4.3,2.3,112
2011-07-14 22:10:06,25.3,-4.7,30.0,2.8,2.3,111
2011-07-14 22:15:06,25.3,-4.8,30.1,1.8,2.3,112
2011-07-14 22:20:06,25.3,-5.0,30.2,1.2,2.3,111
2011-07-14 22:25:06,25.3,-5.2,30.5,0.8,2.3,112
2011-07-14 22:30:06,25.5,-4.9,30.4,0.6,2.3,111
2011-07-14 22:35:06,25.6,-4.9,30.5,0.4,2.3,111
2011-07-14 22:40:06,25.6,-5.0,30.6,0.3,2.3,111
2011-07-14 22:45:06,25.6,-5.1,30.7,0.3,2.3,111
2011-07-14 22:50:06,25.6,-5.1,30.6,0.2,2.3,111
2011-07-14 22:55:06,25.6,-5.3,30.9,0.2,2.3,111
2011-07-14 23:00:06,25.6,-5.3,30.9,0.2,2.3,111
2011-07-14 23:05:06,25.6,-5.4,31.0,0.2,2.3,112
2011-07-14 23:10:06,25.6,-5.5,31.2,0.2,2.3,111
2011-07-14 23:15:06,25.6,-5.5,31.2,0.2,2.3,112
2011-07-14 23:20:06,25.1,-5.5,30.6,0.2,2.3,112
2011-07-14 23:25:07,25.5,-5.6,31.1,0.3,2.3,111
2011-07-14 23:30:07,25.4,-5.8,31.1,0.3,2.3,111
2011-07-14 23:35:07,25.4,-5.9,31.3,0.4,2.3,111
2011-07-14 23:40:07,25.5,-5.8,31.3,0.4,2.2,111
2011-07-14 23:45:07,25.4,-5.8,31.2,0.4,2.2,112
2011-07-14 23:50:07,25.3,-5.8,31.1,0.4,2.2,111
2011-07-14 23:55:07,25.2,-5.9,31.1,0.4,2.2,111
